When you browse on this site, cookies collect data to enhance your experience and personalize the content and advertising you see.
Visit our Privacy Policy to learn more. By continuing to use the site, you agree to this use of cookies and data.
  • In Hungary
  • List of Countries
  • For 7 days
  • Water Temperature
  • Satellite Maps
  • Weather Map
  • News
  • Weather Widgets
  • user-avatar
    Login

    Hourly Weather Mysłowice

    Today, 16 June, Sunday

    Time Temperature Precipitation Wind Pressure Humidity
    00:00 +24°C° 0.3 mm 2 mps 738 mmHg 79%
    01:00 +23°C° 0 mm 2 mps 738 mmHg 79%
    02:00 +21°C° 0 mm 2 mps 738 mmHg 82%
    03:00 +21°C° 0 mm 2 mps 738 mmHg 84%
    04:00 +21°C° 0 mm 1 mps 738 mmHg 87%
    05:00 +22°C° 0.1 mm 1 mps 738 mmHg 84%
    06:00 +23°C° 0.1 mm 1 mps 738 mmHg 81%
    07:00 +24°C° 0 mm 1 mps 739 mmHg 80%
    08:00 +25°C° 0 mm 2 mps 739 mmHg 73%
    09:00 +27°C° 0 mm 2 mps 739 mmHg 66%
    10:00 +28°C° 0 mm 2 mps 739 mmHg 59%
    11:00 +28°C° 0.5 mm 3 mps 739 mmHg 59%
    12:00 +28°C° 0.5 mm 3 mps 740 mmHg 59%
    13:00 +29°C° 0.5 mm 3 mps 740 mmHg 60%
    14:00 +27°C° 1.2 mm 3 mps 740 mmHg 65%
    15:00 +26°C° 1.2 mm 3 mps 740 mmHg 71%
    16:00 +25°C° 1.2 mm 2 mps 740 mmHg 77%
    17:00 +24°C° 0.8 mm 2 mps 740 mmHg 79%
    18:00 +24°C° 0.8 mm 2 mps 741 mmHg 80%
    19:00 +22°C° 0.8 mm 3 mps 741 mmHg 82%
    20:00 +21°C° 0.5 mm 2 mps 741 mmHg 83%
    21:00 +20°C° 0.5 mm 2 mps 741 mmHg 84%
    22:00 +19°C° 0.5 mm 2 mps 742 mmHg 85%
    23:00 +19°C° 0 mm 2 mps 742 mmHg 85%

    Tomorrow, 17 June, Monday

    Time Temperature Precipitation Wind Pressure Humidity
    00:00 +19°C° 0 mm 2 mps 742 mmHg 85%
    01:00 +18°C° 0 mm 2 mps 742 mmHg 86%
    02:00 +18°C° 0 mm 2 mps 742 mmHg 86%
    03:00 +17°C° 0 mm 2 mps 742 mmHg 86%
    04:00 +17°C° 0 mm 2 mps 742 mmHg 86%
    05:00 +18°C° 0 mm 2 mps 743 mmHg 79%
    06:00 +18°C° 0 mm 2 mps 743 mmHg 73%
    07:00 +19°C° 0 mm 2 mps 743 mmHg 67%
    08:00 +20°C° 0 mm 3 mps 743 mmHg 59%
    09:00 +22°C° 0 mm 3 mps 743 mmHg 51%
    10:00 +24°C° 0 mm 3 mps 743 mmHg 44%
    11:00 +25°C° 0 mm 3 mps 743 mmHg 43%
    12:00 +25°C° 0 mm 3 mps 743 mmHg 43%
    13:00 +26°C° 0 mm 3 mps 743 mmHg 42%
    14:00 +26°C° 0 mm 3 mps 743 mmHg 44%
    15:00 +26°C° 0 mm 3 mps 743 mmHg 46%
    16:00 +26°C° 0 mm 3 mps 742 mmHg 48%
    17:00 +24°C° 0 mm 3 mps 742 mmHg 52%
    18:00 +22°C° 0 mm 3 mps 742 mmHg 56%
    19:00 +21°C° 0 mm 3 mps 742 mmHg 61%
    20:00 +20°C° 0 mm 3 mps 742 mmHg 64%
    21:00 +20°C° 0 mm 3 mps 742 mmHg 66%
    22:00 +19°C° 0 mm 3 mps 742 mmHg 69%
    23:00 +18°C° 0 mm 3 mps 742 mmHg 74%

    Day after tomorrow, 18 June, Tuesday

    Time Temperature Precipitation Wind Pressure Humidity
    00:00 +18°C° 0 mm 3 mps 742 mmHg 79%
    01:00 +18°C° 0 mm 3 mps 742 mmHg 83%
    02:00 +17°C° 0 mm 3 mps 742 mmHg 85%
    03:00 +17°C° 0 mm 3 mps 742 mmHg 87%
    04:00 +17°C° 0 mm 3 mps 742 mmHg 89%
    05:00 +18°C° 0 mm 3 mps 742 mmHg 85%
    06:00 +19°C° 0 mm 4 mps 742 mmHg 81%
    07:00 +20°C° 0 mm 4 mps 742 mmHg 78%
    08:00 +21°C° 0 mm 4 mps 742 mmHg 73%
    09:00 +23°C° 0 mm 4 mps 742 mmHg 68%
    10:00 +25°C° 0 mm 5 mps 742 mmHg 64%
    11:00 +25°C° 0 mm 5 mps 742 mmHg 62%
    12:00 +26°C° 0 mm 5 mps 741 mmHg 60%
    13:00 +27°C° 0 mm 5 mps 741 mmHg 58%
    14:00 +27°C° 0 mm 5 mps 740 mmHg 60%
    15:00 +26°C° 0 mm 5 mps 740 mmHg 62%
    16:00 +26°C° 0 mm 5 mps 740 mmHg 64%
    17:00 +25°C° 0 mm 5 mps 740 mmHg 68%
    18:00 +23°C° 0 mm 4 mps 739 mmHg 72%
    19:00 +23°C° 0 mm 4 mps 739 mmHg 76%
    20:00 +22°C° 0.1 mm 4 mps 739 mmHg 79%
    21:00 +21°C° 0.1 mm 4 mps 739 mmHg 83%
    22:00 +20°C° 0.1 mm 3 mps 739 mmHg 87%
    23:00 +20°C° 0.1 mm 3 mps 739 mmHg 88%

    19 June, Wednesday

    Time Temperature Precipitation Wind Pressure Humidity
    00:00 +19°C° 0.1 mm 3 mps 739 mmHg 90%
    01:00 +19°C° 0.1 mm 2 mps 738 mmHg 92%
    02:00 +19°C° 0 mm 2 mps 738 mmHg 93%
    03:00 +18°C° 0 mm 2 mps 738 mmHg 93%
    04:00 +19°C° 0 mm 1 mps 738 mmHg 94%
    05:00 +21°C° 0 mm 1 mps 738 mmHg 89%
    06:00 +22°C° 0 mm 1 mps 738 mmHg 83%
    07:00 +23°C° 0 mm 1 mps 738 mmHg 78%
    08:00 +25°C° 0 mm 1 mps 738 mmHg 70%
    09:00 +27°C° 0 mm 1 mps 738 mmHg 62%
    10:00 +28°C° 0 mm 2 mps 738 mmHg 55%
    11:00 +29°C° 0.2 mm 2 mps 737 mmHg 53%
    12:00 +30°C° 0.2 mm 3 mps 737 mmHg 51%
    13:00 +30°C° 0.2 mm 3 mps 737 mmHg 49%
    14:00 +30°C° 0.2 mm 3 mps 737 mmHg 52%
    15:00 +29°C° 0.2 mm 3 mps 736 mmHg 54%
    16:00 +28°C° 0.2 mm 2 mps 736 mmHg 57%
    17:00 +27°C° 0.6 mm 2 mps 736 mmHg 63%
    18:00 +26°C° 0.6 mm 2 mps 736 mmHg 68%
    19:00 +25°C° 0.6 mm 2 mps 736 mmHg 73%
    20:00 +24°C° 0.2 mm 2 mps 736 mmHg 75%
    21:00 +23°C° 0.2 mm 1 mps 736 mmHg 77%
    22:00 +22°C° 0.2 mm 1 mps 736 mmHg 78%
    23:00 +22°C° 0 mm 1 mps 736 mmHg 79%

    20 June, Thursday

    Time Temperature Precipitation Wind Pressure Humidity
    00:00 +22°C° 0 mm 1 mps 736 mmHg 80%
    01:00 +21°C° 0 mm 1 mps 736 mmHg 81%
    02:00 +21°C° 0 mm 1 mps 736 mmHg 81%
    03:00 +21°C° 0 mm 1 mps 736 mmHg 81%
    04:00 +21°C° 0 mm 1 mps 736 mmHg 81%
    05:00 +22°C° 0 mm 1 mps 736 mmHg 79%
    06:00 +23°C° 0 mm 1 mps 736 mmHg 76%
    07:00 +24°C° 0 mm 1 mps 736 mmHg 73%
    08:00 +24°C° 0 mm 1 mps 736 mmHg 70%
    09:00 +25°C° 0 mm 1 mps 736 mmHg 67%
    10:00 +26°C° 0 mm 1 mps 736 mmHg 65%
    11:00 +27°C° 0 mm 1 mps 736 mmHg 58%
    12:00 +29°C° 0 mm 1 mps 736 mmHg 52%
    13:00 +31°C° 0 mm 1 mps 736 mmHg 45%
    14:00 +30°C° 0 mm 1 mps 736 mmHg 48%
    15:00 +29°C° 0 mm 2 mps 736 mmHg 51%
    16:00 +28°C° 0 mm 3 mps 736 mmHg 54%
    17:00 +27°C° 0.6 mm 2 mps 736 mmHg 60%
    18:00 +26°C° 0.6 mm 2 mps 736 mmHg 66%
    19:00 +24°C° 0.6 mm 2 mps 736 mmHg 72%
    20:00 +24°C° 0.1 mm 2 mps 736 mmHg 72%
    21:00 +23°C° 0.1 mm 1 mps 736 mmHg 72%
    22:00 +23°C° 0.1 mm 1 mps 736 mmHg 72%
    23:00 +22°C° 0 mm 1 mps 736 mmHg 73%

    21 June, Friday

    Time Temperature Precipitation Wind Pressure Humidity
    00:00 +22°C° 0 mm 1 mps 736 mmHg 75%
    01:00 +21°C° 0 mm 1 mps 736 mmHg 76%
    02:00 +21°C° 0 mm 1 mps 736 mmHg 77%
    03:00 +21°C° 0 mm 1 mps 736 mmHg 79%
    04:00 +20°C° 0 mm 1 mps 736 mmHg 80%
    05:00 +22°C° 0 mm 1 mps 736 mmHg 74%
    06:00 +23°C° 0 mm 1 mps 736 mmHg 69%
    07:00 +25°C° 0 mm 2 mps 736 mmHg 63%
    08:00 +26°C° 0 mm 2 mps 736 mmHg 59%
    09:00 +28°C° 0 mm 2 mps 737 mmHg 55%
    10:00 +29°C° 0 mm 2 mps 737 mmHg 51%
    11:00 +29°C° 0.3 mm 3 mps 737 mmHg 51%
    12:00 +29°C° 0.3 mm 3 mps 737 mmHg 52%
    13:00 +30°C° 0.3 mm 3 mps 737 mmHg 52%
    14:00 +29°C° 0.6 mm 3 mps 737 mmHg 56%
    15:00 +29°C° 0.6 mm 2 mps 737 mmHg 59%
    16:00 +28°C° 0.6 mm 2 mps 737 mmHg 63%
    17:00 +27°C° 0.3 mm 2 mps 737 mmHg 67%
    18:00 +26°C° 0.3 mm 3 mps 737 mmHg 72%
    19:00 +25°C° 0.3 mm 3 mps 737 mmHg 76%
    20:00 +24°C° 1.1 mm 3 mps 737 mmHg 81%
    21:00 +22°C° 1.1 mm 3 mps 738 mmHg 86%
    22:00 +21°C° 1.1 mm 3 mps 738 mmHg 90%
    23:00 +20°C° 0.1 mm 3 mps 738 mmHg 91%
    Show more